Showing default

HULIANWANG DIGUI-10, 62332

Orbit data source: Space-Track

HULIANWANG DIGUI-10, 62332 is a payload satellite owned by Zhongguo Xingwang (CN) in LEO that was launched on Mon, 16 Dec 2024 UTC via a CHANG ZHENG 5B/YZ-2 launch vehicle from the Wenchang Satellite Launch Center (WSC). Payload-class satellites include a variety of spacecraft equipped with specific instruments for various scientific and technological missions. These include communications satellites like Starlink; space stations such as the ISS; scientific satellites like the Hubble; Earth observation satellites from companies like Planet Labs, Umbra, and HawkEye 360; GPS; miniature CubeSats for education and research; and military/defense satellites.

Loading next visibility...
Identifier
62332, 2024-240K
Orbit
LEO
Country
Flag of CNCN / PRC
Related business
Manufacturer
CAST?
Mission
Operational Civil Communications
Bus & Motor
XINGWANG CL, Unknown motor
Mass
~800 kg wet, ~800 kg dry
Launch date (UTC)
2024-12-16 (1 year ago)
Launch vehicle
CHANG ZHENG 5B/YZ-2
Launch site
Wenchang Satellite Launch Center (WSC)
Object type
Payload
Rocket body
Debris
Shape & HBR
Box + 2 Pan, 5.0 m
Radar Cross Section
5.935 m², Large (>1 m²)

Expand to show TLE details & history
Last TLE update: 6 hours ago

TLE from 6 hours ago
0 HULIANWANG DIGUI-10
1 62332U 24240K   26061.79259094  .00000021  00000-0  14999-4 0  9997
2 62332  86.5056  19.2516 0001937  92.2349 267.9007 13.24421479 58552
Epoch: 2026-03-02T19:01Z
TLE epoch observation values (Epoch: 2026-03-02T19:01:19.857Z)
Latitude
0.00001°
Longitude
-66.66205°
Altitude
1,170.827 km
Speed
7.268 km/s
True Right ascension
01h 17m 00s
True Declination
0° 00' 00"
Sunlit
Object was in daylight at epoch
Visualization orbit readout
Latitude
Unknown
Longitude
Unknown
Altitude
Unknown
Speed
Unknown
Apparent Right ascension
Unknown
Apparent Declination
Unknown
Sunlit
N/A
Visualization observer readout
Local Sidereal Time
04:56:07
Azimuth
Unknown
Elevation
Unknown
Doppler factor
Unknown
Orbital elements
Apogee altitude
1,166.459 km
Perigee altitude
1,163.537 km
Semi-major axis
7,543.135 km
Eccentricity
0.00019
Inclination
86.5056°
RAAN
19.2516°
Arg. of periapsis
92.2349°
True anomaly
267.87852°
Mean anomaly
267.9007°
Eccentric anomaly
267.88961°
Mean motion
3.31295 °/min
Orbital period
108.66 mins
BSTAR
0.000014999
Loading maneuver chart data...
Computing Atmospheric mass density...
Loading historical data...
Loading historical data...
Loading historical data...
Loading historical data...
Loading historical data...
Loading historical data...
Loading historical data...

Documentation

Showing up to 5 results
|